Total_Precipitation_Accumulation
1.32 1.37 1.40 1.41 1.42 1.42 1.39 1.32 1.39 1.46 1.48 1.47 1.51 1.59 1.63 1.67 1.77 1.88 1.84 1.95 1.97 1.96 1.93 2.05 2.17 2.35 2.32 2.15 2.28 2.39 2.52 2.70 2.42 2.17 2.05 1.83 1.81 1.69 1.65 1.58 1.44 1.40 1.26
1.30 1.41 1.59 1.56 1.55 1.49 1.37 1.33 1.38 1.39 1.41 1.42 1.51 1.58 1.57 1.64 1.80 1.89 1.86 1.93 1.94 1.89 1.93 2.08 2.08 2.16 2.25 2.16 2.13 2.12 2.29 2.51 2.47 2.31 2.32 2.24 2.08 1.95 1.92 1.83 1.50 1.36 1.35
1.36 1.44 1.56 1.58 1.54 1.45 1.36 1.33 1.32 1.33 1.38 1.42 1.42 1.46 1.50 1.57 1.71 1.76 1.84 1.90 1.95 1.99 1.96 1.92 1.86 1.99 2.14 2.30 2.31 2.22 2.23 2.36 2.52 2.42 2.37 2.45 2.24 2.07 2.19 2.03 1.82 1.83 1.45
1.20 1.25 1.33 1.29 1.28 1.29 1.30 1.27 1.24 1.31 1.37 1.44 1.45 1.50 1.52 1.56 1.60 1.65 1.69 1.63 1.64 1.65 1.67 1.70 1.71 1.76 1.91 2.30 2.34 2.39 2.39 2.38 2.52 2.52 2.50 2.55 2.59 2.39 2.42 2.22 2.09 1.96 1.71
1.14 1.19 1.27 1.33 1.31 1.31 1.26 1.20 1.28 1.34 1.31 1.42 1.49 1.46 1.48 1.49 1.38 1.45 1.43 1.34 1.42 1.37 1.34 1.36 1.36 1.44 1.49 1.66 1.74 2.02 2.27 2.36 2.41 2.49 2.50 2.58 2.61 2.73 2.47 2.30 2.26 2.19 2.04
0.92 0.99 1.21 1.35 1.36 1.32 1.22 1.23 1.30 1.36 1.41 1.47 1.50 1.44 1.41 1.26 1.33 1.37 1.35 1.30 1.31 1.27 1.21 1.19 1.17 1.23 1.28 1.30 1.29 1.46 1.73 2.00 2.28 2.49 2.54 2.57 2.62 2.72 2.70 2.54 2.42 2.28 2.18
0.85 0.91 1.00 1.12 1.19 1.14 1.08 1.10 1.15 1.24 1.37 1.42 1.46 1.52 1.49 1.48 1.48 1.44 1.37 1.24 1.21 1.20 1.19 1.21 1.04 1.00 1.09 1.05 1.17 1.21 1.28 1.45 1.62 1.99 2.24 2.27 2.39 2.50 2.71 2.65 2.61 2.54 2.41
0.98 1.01 0.99 1.04 1.14 1.17 1.13 1.13 1.23 1.31 1.35 1.41 1.42 1.48 1.53 1.47 1.50 1.40 1.30 1.13 1.15 1.21 1.19 1.20 1.18 1.15 1.15 1.18 1.23 1.17 1.10 1.13 1.23 1.32 1.42 1.62 1.87 2.20 2.48 2.60 2.73 2.76 2.75
1.03 1.07 1.08 1.11 1.17 1.22 1.21 1.29 1.42 1.51 1.43 1.39 1.45 1.53 1.58 1.60 1.58 1.39 1.27 1.13 1.17 1.22 1.16 1.17 1.23 1.17 1.19 1.11 1.13 1.16 1.11 1.08 1.11 1.20 1.16 1.28 1.42 1.63 1.93 2.13 2.31 2.52 2.76
1.17 1.14 1.18 1.28 1.34 1.38 1.50 1.70 1.79 1.80 1.71 1.65 1.56 1.56 1.58 1.65 1.64 1.41 1.30 1.19 1.27 1.35 1.39 1.38 1.35 1.24 1.18 1.11 1.05 1.12 1.12 1.08 1.13 1.13 1.09 1.06 1.08 1.20 1.43 1.58 1.75 2.01 2.26
1.48 1.48 1.46 1.55 1.65 1.71 1.92 2.06 2.09 2.07 2.16 2.13 1.96 1.88 1.85 1.83 1.77 1.58 1.56 1.47 1.56 1.67 1.61 1.50 1.39 1.29 1.08 1.01 0.99 1.00 1.02 1.06 1.16 1.22 1.21 1.16 1.14 1.12 1.18 1.33 1.53 1.64 1.76
1.56 1.64 1.71 1.87 1.81 1.88 2.15 2.20 2.30 2.44 2.44 2.35 2.34 2.25 2.15 2.11 1.91 1.73 1.64 1.57 1.52 1.58 1.60 1.48 1.36 1.23 1.01 0.91 0.86 0.83 0.84 0.82 0.87 0.99 1.05 1.09 1.11 1.05 1.08 1.22 1.43 1.59 1.58
1.75 1.83 1.96 2.12 2.25 2.30 2.46 2.56 2.55 2.55 2.55 2.51 2.52 2.46 2.38 2.30 2.11 1.79 1.61 1.53 1.44 1.37 1.38 1.36 1.27 1.13 1.00 0.87 0.86 0.82 0.75 0.74 0.82 0.90 0.94 1.02 1.06 1.04 1.06 1.18 1.34 1.53 1.56
1.86 1.91 2.04 2.19 2.27 2.36 2.53 2.59 2.62 2.61 2.62 2.67 2.66 2.53 2.41 2.32 2.16 1.91 1.66 1.50 1.37 1.25 1.23 1.29 1.24 1.12 0.99 0.94 0.94 0.86 0.78 0.85 0.94 0.92 0.95 1.02 1.12 1.15 1.17 1.18 1.30 1.41 1.50
1.96 2.04 2.18 2.32 2.44 2.51 2.44 2.49 2.56 2.59 2.53 2.44 2.42 2.39 2.38 2.28 2.14 1.94 1.74 1.60 1.51 1.44 1.36 1.34 1.34 1.24 1.14 1.11 1.13 1.13 1.12 1.08 1.02 1.01 1.06 1.12 1.19 1.24 1.24 1.26 1.31 1.37 1.35
2.07 2.12 2.22 2.30 2.43 2.44 2.42 2.32 2.23 2.15 2.12 2.00 2.01 2.04 2.04 2.02 1.91 1.69 1.55 1.49 1.48 1.53 1.44 1.42 1.49 1.49 1.43 1.35 1.31 1.30 1.27 1.20 1.17 1.19 1.23 1.24 1.24 1.24 1.23 1.31 1.40 1.42 1.40
2.12 2.14 2.17 2.17 2.25 2.35 2.36 2.29 2.17 2.05 1.93 1.81 1.76 1.71 1.64 1.64 1.61 1.56 1.55 1.54 1.50 1.45 1.38 1.45 1.56 1.62 1.63 1.60 1.51 1.41 1.36 1.28 1.23 1.23 1.23 1.25 1.24 1.28 1.33 1.36 1.43 1.48 1.47
2.05 2.10 2.05 2.03 2.11 2.24 2.26 2.27 2.26 2.16 2.08 1.97 1.86 1.76 1.58 1.47 1.45 1.49 1.54 1.52 1.46 1.40 1.41 1.56 1.65 1.67 1.72 1.71 1.60 1.52 1.44 1.36 1.32 1.33 1.36 1.40 1.40 1.41 1.41 1.38 1.40 1.43 1.48
2.01 2.01 2.03 2.05 2.09 2.15 2.21 2.25 2.26 2.16 2.12 2.01 1.81 1.65 1.55 1.43 1.39 1.42 1.39 1.34 1.43 1.50 1.55 1.68 1.73 1.72 1.64 1.57 1.53 1.50 1.43 1.39 1.37 1.38 1.38 1.38 1.37 1.39 1.43 1.46 1.48 1.55 1.52
1.85 1.98 2.04 1.98 1.97 2.03 2.13 2.22 2.22 2.19 2.19 2.14 1.99 1.70 1.50 1.35 1.28 1.34 1.29 1.28 1.34 1.38 1.41 1.50 1.60 1.65 1.62 1.56 1.50 1.43 1.38 1.35 1.33 1.33 1.33 1.33 1.37 1.39 1.36 1.40 1.44 1.40 1.39
1.79 1.80 1.90 1.88 1.86 1.88 1.94 1.98 2.03 1.99 1.92 1.89 1.84 1.69 1.54 1.38 1.38 1.35 1.33 1.31 1.29 1.26 1.32 1.43 1.49 1.48 1.43 1.39 1.39 1.35 1.33 1.33 1.31 1.30 1.35 1.37 1.38 1.36 1.28 1.26 1.27 1.27 1.26
1.89 1.86 1.75 1.73 1.74 1.80 1.81 1.80 1.82 1.77 1.69 1.65 1.60 1.51 1.46 1.35 1.36 1.35 1.31 1.29 1.22 1.17 1.17 1.22 1.27 1.30 1.26 1.23 1.26 1.29 1.29 1.27 1.28 1.27 1.26 1.27 1.29 1.26 1.22 1.22 1.23 1.28 1.34
1.83 1.78 1.66 1.56 1.50 1.58 1.58 1.58 1.59 1.55 1.51 1.49 1.45 1.34 1.27 1.28 1.26 1.20 1.16 1.11 1.08 1.07 1.08 1.11 1.14 1.15 1.12 1.09 1.10 1.14 1.15 1.12 1.14 1.18 1.21 1.23 1.23 1.18 1.18 1.21 1.20 1.26 1.31
1.66 1.64 1.56 1.44 1.30 1.27 1.36 1.47 1.48 1.46 1.45 1.37 1.26 1.18 1.14 1.14 1.09 0.99 0.93 0.92 0.91 0.88 0.88 0.93 0.90 0.87 0.89 0.93 0.95 0.95 0.94 0.92 0.92 0.97 0.99 1.06 1.11 1.08 1.08 1.09 1.06 1.11 1.24
1.40 1.40 1.42 1.39 1.24 1.14 1.23 1.33 1.33 1.27 1.23 1.15 1.05 1.02 0.99 0.95 0.92 0.88 0.84 0.82 0.79 0.78 0.71 0.71 0.74 0.72 0.74 0.75 0.76 0.76 0.74 0.70 0.68 0.71 0.76 0.83 0.92 0.97 0.99 1.02 1.06 1.15 1.24
1.16 1.18 1.21 1.22 1.14 1.06 1.10 1.17 1.17 1.10 1.08 1.00 0.89 0.87 0.87 0.87 0.87 0.86 0.82 0.76 0.73 0.68 0.64 0.64 0.66 0.66 0.64 0.64 0.64 0.60 0.58 0.56 0.56 0.61 0.61 0.69 0.82 0.92 0.95 0.98 1.00 1.05 1.12